Terminal Aerodrome Forecast
Issued by NWS Shreveport, LA

Home | Current Version | Previous Version | Text Only | Print | Product List | Glossary On
Versions: 1 2 3 4 5 6 7 8 9 10 11 12 13 14 15
121
FTUS44 KSHV 211409 AAA
TAFGGG
TAF AMD
KGGG 211409Z 2114/2212 14005KT P6SM SCT015 BKN035
     FM211500 19007KT P6SM BKN035
     FM211800 18010KT P6SM SCT040 SCT250
     FM220100 16005KT P6SM SCT250
     FM220800 17004KT P6SM BKN015=

USA.gov is the U.S. government's official web portal to all federal, state and local government web resources and services.